Rantoul, IL

3:14 AM CST on February 21, 2017 (GMT -0600)
Rantoul

Weather History for KTIP - February, 2014

Change the Weather History Date:

Friday, February 28, 2014

  Actual Average (KCMI) Record (KCMI)
Temperature  
Mean Temperature 22 °F -  
Max Temperature 36 °F 40 °F 67 °F (2016)
Min Temperature 8 °F 25 °F 3 °F (2002)
Degree Days  
Heating Degree Days 43    
Moisture  
Dew Point 12 °F    
Average Humidity 61    
Maximum Humidity 76    
Minimum Humidity 43    
Precipitation  
Precipitation 0.00 in - - ()
Sea Level Pressure  
Sea Level Pressure 30.09 in    
Wind  
Wind Speed 4 mph (SSE)    
Max Wind Speed 18 mph    
Max Gust Speed 23 mph    
Visibility 10 miles    
Events      
Averages and records for this station are not official NWS values.
T = Trace of Precipitation, MM = Missing Value Source: NWS Daily Summary

Daily Weather History Graph

Daily Weather History Graph

Search for Another Location

Airport or City:

Trip Planner

Search our weather history database for the weather conditions in past years. The results will help you decide how hot, cold, wet, or windy it might be!

Date:

Astronomy

Feb. 28, 2014 Rise Set
Actual Time 6:27 AM CST 5:43 PM CST
Civil Twilight 6:00 AM CST 6:10 PM CST
Nautical Twilight 5:28 AM CST 6:42 PM CST
Astronomical Twilight 4:57 AM CST 7:13 PM CST
Moon 5:42 AM CST (2/28) 5:19 PM CST (2/28)
Length of Visible Light 12h 10m
Length of Day
11h 15m
Waning Crescent, 1% of the Moon is Illuminated
Feb 28
Waning Crescent
Mar 1
New
Mar 8
First Quarter
Mar 16
Full
Mar 23
Last Quarter

Hourly Weather History & Observations

Time (CST) Temp. Windchill Dew Point Humidity Pressure Visibility Wind Dir Wind Speed Gust Speed Precip Events Conditions
12:15 AM 8.6 °F - -1.3 °F 64% 30.19 in 10.0 mi Calm Calm - N/A   Unknown
12:35 AM 8.6 °F - -1.1 °F 65% 30.19 in 10.0 mi Calm Calm - N/A   Unknown
12:55 AM 8.6 °F - -0.9 °F 65% 30.18 in 10.0 mi Calm Calm - N/A   Unknown
1:15 AM 8.6 °F - -1.1 °F 65% 30.18 in 10.0 mi Calm Calm - N/A   Unknown
1:35 AM 9.0 °F - -0.4 °F 66% 30.18 in 10.0 mi Calm Calm - N/A   Unknown
1:55 AM 9.5 °F - -0.2 °F 65% 30.17 in 10.0 mi Calm Calm - N/A   Unknown
2:15 AM 10.0 °F - -0.2 °F 63% 30.17 in 10.0 mi Calm Calm - N/A   Unknown
2:35 AM 10.4 °F - -0.6 °F 61% 30.16 in 10.0 mi Calm Calm - N/A   Unknown
2:55 AM 10.2 °F - -0.2 °F 63% 30.16 in 10.0 mi Calm Calm - N/A   Unknown
3:15 AM 10.4 °F - 0.9 °F 65% 30.15 in 10.0 mi Calm Calm - N/A   Unknown
3:35 AM 10.4 °F - 1.8 °F 68% 30.15 in 10.0 mi Calm Calm - N/A   Unknown
3:55 AM 10.4 °F - 1.4 °F 67% 30.15 in 10.0 mi Calm Calm - N/A   Unknown
4:15 AM 10.2 °F - 2.1 °F 70% 30.16 in 10.0 mi Calm Calm - N/A   Unknown
4:35 AM 10.0 °F - 2.3 °F 71% 30.16 in 10.0 mi Calm Calm - N/A   Unknown
4:55 AM 10.2 °F - 2.7 °F 72% 30.16 in 10.0 mi Calm Calm - N/A   Unknown
5:15 AM 10.4 °F - 3.0 °F 72% 30.16 in 10.0 mi Calm Calm - N/A   Unknown
5:35 AM 10.4 °F - 3.0 °F 72% 30.17 in 10.0 mi Calm Calm - N/A   Unknown
5:50 AM 10.4 °F - 3.2 °F 73% 30.17 in 10.0 mi Calm Calm - N/A   Unknown
6:15 AM 10.4 °F - 3.7 °F 74% 30.18 in 10.0 mi Calm Calm - N/A   Unknown
6:35 AM 10.4 °F - 4.1 °F 76% 30.18 in 10.0 mi Calm Calm - N/A   Unknown
6:50 AM 10.4 °F - 3.9 °F 75% 30.18 in 10.0 mi Calm Calm - N/A   Unknown
7:15 AM 11.7 °F - 4.1 °F 72% 30.18 in 10.0 mi Calm Calm - N/A   Unknown
7:35 AM 12.6 °F - 4.3 °F 69% 30.19 in 10.0 mi Calm Calm - N/A   Unknown
7:50 AM 13.6 °F 0.0 °F 4.8 °F 68% 30.19 in 10.0 mi SE 11.5 mph - N/A   Unknown
8:15 AM 14.9 °F 2.3 °F 5.7 °F 67% 30.18 in 10.0 mi SE 10.4 mph - N/A   Unknown
8:35 AM 16.3 °F 2.1 °F 5.9 °F 64% 30.17 in 10.0 mi SE 13.8 mph - N/A   Unknown
8:55 AM 17.4 °F 3.5 °F 6.6 °F 63% 30.17 in 10.0 mi SE 13.8 mph 18.4 mph N/A   Unknown
9:15 AM 18.7 °F 3.6 °F 7.0 °F 60% 30.16 in 10.0 mi SE 17.3 mph - N/A   Unknown
9:35 AM 19.8 °F 5.4 °F 7.5 °F 59% 30.15 in 10.0 mi SE 16.1 mph - N/A   Unknown
9:55 AM 21.4 °F 7.5 °F 8.8 °F 58% 30.15 in 10.0 mi SSE 16.1 mph - N/A   Unknown
10:15 AM 22.8 °F 9.9 °F 9.9 °F 58% 30.15 in 10.0 mi SSE 15.0 mph - N/A   Unknown
10:35 AM 24.4 °F 11.5 °F 10.4 °F 55% 30.14 in 10.0 mi SSE 16.1 mph - N/A   Unknown
10:55 AM 25.7 °F 13.1 °F 9.3 °F 50% 30.13 in 10.0 mi SSE 16.1 mph - N/A   Unknown
11:15 AM 27.1 °F 14.9 °F 10.8 °F 50% 30.12 in 10.0 mi SSE 16.1 mph - N/A   Unknown
11:35 AM 28.2 °F 16.3 °F 12.2 °F 51% 30.12 in 10.0 mi SSE 16.1 mph 20.7 mph N/A   Unknown
11:55 AM 29.1 °F 18.4 °F 11.5 °F 48% 30.11 in 10.0 mi SSE 13.8 mph - N/A   Unknown
12:15 PM 30.0 °F 17.9 °F 11.3 °F 46% 30.09 in 10.0 mi SSE 18.4 mph 21.9 mph N/A   Unknown
12:35 PM 31.5 °F 20.9 °F 11.7 °F 44% 30.08 in 10.0 mi SSE 15.0 mph 23.0 mph N/A   Unknown
12:55 PM 32.0 °F 21.2 °F 14.4 °F 48% 30.07 in 10.0 mi SSE 16.1 mph - N/A   Unknown
1:15 PM 32.2 °F 21.4 °F 13.1 °F 45% 30.06 in 7.0 mi SSE 16.1 mph - N/A   Unknown
1:35 PM 33.1 °F 23.0 °F 13.6 °F 45% 30.05 in 10.0 mi SSE 15.0 mph - N/A   Unknown
1:55 PM 34.2 °F 24.4 °F 13.8 °F 43% 30.04 in 10.0 mi SSE 15.0 mph 18.4 mph N/A   Unknown
2:15 PM 34.9 °F 25.3 °F 14.7 °F 44% 30.03 in 10.0 mi SSE 15.0 mph - N/A   Unknown
2:35 PM 35.4 °F 26.4 °F 15.6 °F 44% 30.03 in 10.0 mi SSE 13.8 mph 19.6 mph N/A   Unknown
2:55 PM 35.8 °F 26.9 °F 15.8 °F 44% 30.03 in 10.0 mi SSE 13.8 mph - N/A   Unknown
3:15 PM 36.3 °F 27.5 °F 17.1 °F 46% 30.02 in 10.0 mi SSE 13.8 mph - N/A   Unknown
3:35 PM 36.5 °F 29.2 °F 17.6 °F 46% 30.01 in 10.0 mi SSE 10.4 mph 16.1 mph N/A   Unknown
3:55 PM 36.5 °F 28.7 °F 17.8 °F 47% 30.00 in 10.0 mi SSE 11.5 mph - N/A   Unknown
4:15 PM 36.1 °F 27.7 °F 18.3 °F 48% 30.00 in 10.0 mi SSE 12.7 mph - N/A   Unknown
4:35 PM 36.5 °F 32.7 °F 20.3 °F 52% 29.99 in 10.0 mi SSE 4.6 mph - N/A   Unknown
4:55 PM 36.5 °F - 21.4 °F 54% 29.99 in 10.0 mi Calm Calm - N/A   Unknown
5:10 PM 35.8 °F - 22.3 °F 58% 29.99 in 10.0 mi Calm Calm - N/A   Unknown
5:35 PM 34.9 °F - 22.8 °F 61% 29.99 in 10.0 mi Calm Calm - N/A   Unknown
5:55 PM 34.3 °F - 22.8 °F 63% 30.00 in 10.0 mi Calm Calm - N/A   Unknown
6:15 PM 34.0 °F - 22.1 °F 62% 30.00 in 10.0 mi Calm Calm - N/A   Unknown
6:35 PM 34.0 °F - 22.1 °F 62% 30.01 in 10.0 mi Calm Calm - N/A   Unknown
6:55 PM 33.8 °F - 22.1 °F 62% 30.02 in 10.0 mi Calm Calm - N/A   Unknown
7:15 PM 33.8 °F - 21.9 °F 62% 30.02 in 10.0 mi Calm Calm - N/A   Unknown
7:35 PM 33.8 °F - 22.3 °F 63% 30.03 in 10.0 mi Calm Calm - N/A   Unknown
7:55 PM 33.4 °F - 22.3 °F 64% 30.03 in 10.0 mi Calm Calm - N/A   Unknown
8:15 PM 32.9 °F - 23.0 °F 67% 30.03 in 10.0 mi Calm Calm - N/A   Unknown
8:35 PM 32.5 °F - 23.2 °F 68% 30.03 in 10.0 mi Calm Calm - N/A   Unknown
8:55 PM 32.2 °F - 23.2 °F 69% 30.03 in 10.0 mi Calm Calm - N/A   Unknown
9:15 PM 32.0 °F - 23.7 °F 71% 30.02 in 10.0 mi Calm Calm - N/A   Unknown
9:35 PM 32.0 °F - 23.0 °F 69% 30.02 in 10.0 mi Calm Calm - N/A   Unknown
9:50 PM 32.0 °F - 22.8 °F 69% 30.03 in 10.0 mi Calm Calm - N/A   Unknown
10:15 PM 32.4 °F - 23.0 °F 68% 30.02 in 10.0 mi Calm Calm - N/A   Unknown
10:35 PM 32.4 °F - 22.5 °F 67% 30.02 in 10.0 mi Calm Calm - N/A   Unknown
10:55 PM 32.0 °F - 23.0 °F 69% 30.01 in 10.0 mi Calm Calm - N/A   Unknown
11:10 PM 31.5 °F - 23.0 °F 71% 30.01 in 10.0 mi Calm Calm - N/A   Unknown
11:35 PM 31.6 °F - 22.1 °F 68% 30.01 in 10.0 mi Calm Calm - N/A   Unknown
11:55 PM 30.9 °F - 22.1 °F 70% 30.01 in 10.0 mi Calm Calm - N/A   Unknown